{"data":{"norad_id":61541,"intl_designator":"2024-184K","name":"STARLINK-11357 [DTC]","alt_names":[],"object_type":"PAYLOAD","status":"ACTIVE","operator":null,"country":"US","launch_date":"2024-10-15","launch_site_code":"AFWTR","launch_vehicle":null,"mission":null,"orbit_class":"UNKNOWN","rcs_meters":null,"size_class":null,"mass_kg":null,"dimensions":null,"purposes":["comms"],"wikipedia_slug":null,"has_3d_model":false,"image_url":null,"decayed_at":null,"tle_current":{"epoch":"2026-05-25T05:22:23.347776Z","epoch_age_seconds":59724,"freshness":"FRESH","line1":"1 61541U 24184K   26145.22388134  .00001715  00000+0  19006-4 0  9998","line2":"2 61541  53.1590 219.2867 0000709  79.1574 280.9523 15.69705182 92437","mean_motion":15.69705182,"eccentricity":7.09e-5,"inclination_deg":53.159,"raan_deg":219.2867,"arg_perigee_deg":79.1574,"mean_anomaly_deg":280.9523,"bstar":1.9006e-5,"rev_number":9243,"period_min":91.736971790159,"perigee_km":359.26282220939,"apogee_km":360.21825324424,"semimajor_km":6737.8775377268,"source":"CELESTRAK","updated_at":"2026-05-25T13:38:19.398863Z"}}}